Погода в Тарутине

Россия / Калужская область     55°07′14″N   36°56′22″E
темп.,
°C
ветер,
м/с
пор.,
м/с
влажн.,
%
обл.,
%
осадки,
мм/ч
давл.,
гПа
погр.,
м
5 августа, чт
чт500:00+13ююв11875 0.1 101710
03:00+13ю118983 0.3 101712
06:00+14ююв1186100 0.0 101738
09:00+18юв2465100 0.0 1017380
12:00+23ю3545100 0.0 10162042
15:00+16ссв1295100 2.5 101650
18:00+16в259486 0.3 1014169
21:00+14в2696100 0.4 1013126
6 августа, пт
пт600:00+14юв2294100 0.1 101218
03:00+14юв239525 0.3 101259
06:00+15ю139733 0.4 1011107
09:00+18ююв2693100 1.0 1011271
12:00+20ююз3790100 1.3 1011696
15:00+20в249183 3.3 1011354
18:00+22всв367756 0.0 1009504
21:00+18в4118891 0.0 1009362
7 августа, сб
сб700:00+16всв399864 1.2 1008193
03:00+16в2997100 2.8 1007198
06:00+17юв2697100 0.6 1008139
09:00+22ююв4108283 0.9 1007440
12:00+23ю4972100 0.1 1009918
15:00+28ююв51048100 0.1 10082038
18:00+27ю4855100 0.0 10071105
21:00+18ю2893100 0.6 1010177
8 августа, вс
вс800:00+18з2396100 0.2 101072
03:00+17з2698100 0.5 1012166
06:00+15з2694100 0.0 1012159
09:00+18з3571100 0.0 1014409
12:00+22зюз3356100 0.0 10151074
15:00+24з3450100 0.0 10151678
18:00+24зюз235429 0.0 1016842
21:00+19с1173100 0.0 101718
9 августа, пн
пн900:00+16з00870 0.0 101811
03:00+14з119014 0.0 101911
06:00+15з118742 0.0 101911
09:00+22ююз115754 0.0 1019396
12:00+27юз11404 0.0 10191522
15:00+28ю00350 0.0 10181876
18:00+26вюв11481 0.0 101763
21:00+19ююв11685 0.0 101811